Location: Knowlton
(51.2333°N, 1.2667°E)
Time: 01:03:05
(UTC+00:00)

ISS - Pass Details

Date: 05 October 2021
Orbit: 418 x 423 km, 51.6° (Epoch: 17 October)

Event Time Altitude Azimuth Distance (km) Brightness Sun altitude
Rises 18:19:06 0° 283° (WNW) 2,366 2.2 -9.5°
Reaches altitude 10° 18:21:32 10° 266° (W) 1,500 0.6 -9.9°
Maximum altitude 18:24:06 20° 216° (SW) 1,018 -1.4 -10.3°
Drops below altitude 10° 18:26:40 10° 166° (SSE) 1,495 -1.1 -10.7°
Enters shadow 18:28:22 - 153° (SSE) 2,084 -0.5 -11.0°
